Regional Weather Roundup
Issued by NWS

Home | Current Version | Previous Version | Graphics & Text | Print | Product List | Glossary On
Versions: 1 2 3 4 5 6 7 8 9 10 11 12 13 14 15 16 17 18 19 20 21 22 23 24 25 26 27 28 29 30 31 32 33 34 35 36 37 38 39 40 41 42 43 44 45 46 47 48 49 50
000
ASUS43 KDMX 102206
RWRIA

WEATHER ROUNDUP FOR IOWA
NATIONAL WEATHER SERVICE DES MOINES IA
400 PM CST SAT DEC 10 2016

NOTE: "FAIR" INDICATES FEW OR NO CLOUDS BELOW 12,000 FEET WITH NO
SIGNIFICANT WEATHER AND/OR OBSTRUCTIONS TO VISIBILITY.

* - THESE STATIONS ARE NOT NWS STATIONS...THUS NOT UNDER NWS
QUALITY CONTROL.  THEY ALSO DO NOT REPORT WEATHER SUCH
AS PRECIPITATION OR FOG.

IAZ001>003-012>014-020>022-031>034-043>046-102300-
   NORTHWEST IOWA

CITY           SKY/WX    TMP DP  RH WIND       PRES   REMARKS
CARROLL *      CLOUDY    23  21  93 E17       30.14F WCI   9
CHEROKEE *     CLOUDY    22  19  91 E13       30.13F WCI   9
DENISON *      CLOUDY    23  19  86 SE10G21   30.10F WCI  12
LE MARS *      CLOUDY    23  19  86 SE10G17   30.10F WCI  12
ORANGE CITY *  CLOUDY    19  19 100 E12G20    30.08F FOG     WCI   7
SHELDON *      CLOUDY    16  16 100 E21G28    30.10F WCI  -2
SIOUX CITY     CLOUDY    26  20  77 SE18      30.08F WCI  13
SPENCER        CLOUDY    17  14  88 MISG      30.14F
STORM LAKE *   CLOUDY    19  19 100 E20       30.12F WCI   4
$$

IAZ055>058-069>071-079>083-090>094-102300-
   SOUTHWEST IOWA

CITY           SKY/WX    TMP DP  RH WIND       PRES   REMARKS
ATLANTIC *     CLOUDY    28  18  64 E8        30.13F WCI  20
AUDUBON *      CLOUDY    25  19  80 E12       30.13F WCI  14
CLARINDA *     CLOUDY    32  18  55 SE7       30.15F WCI  26
COUNCIL BLFS * CLOUDY    30  16  55 SE14      30.09F WCI  20
CRESTON *      CLOUDY    28  18  64 SE10      30.16F WCI  19
HARLAN  *      CLOUDY    27  21  80 SE9       30.15F WCI  17
LAMONI         CLOUDY    30  14  51 SE10      30.17F WCI  21
RED OAK *      CLOUDY    30  16  55 SE13      30.13F WCI  20
SHENANDOAH *   CLOUDY    32  16  51 SE14G21   30.12F WCI  22
$$

IAZ047>049-059>061-072>074-084-102300-
   CENTRAL IOWA

CITY           SKY/WX    TMP DP  RH WIND       PRES   REMARKS
AMES           CLOUDY    23  20  88 SE12      30.24F WCI  12
ANKENY *       CLOUDY    25  21  86 E9G15     30.24F WCI  15
BOONE *        CLOUDY    23  19  86 SE15      30.20F WCI  10
CHARITON *     CLOUDY    28  18  64 SE8       30.21F WCI  20
DES MOINES     CLOUDY    26  19  74 E10       30.22F WCI  16
GRINNELL*      CLOUDY    23  20  87 E10       30.27F WCI  12
KNOXVILLE *    CLOUDY    25  18  74 E8        30.23F WCI  16
MARSHALLTOWN   CLOUDY    22  19  89 SE13      30.25F WCI  10
NEWTON *       CLOUDY    23  19  86 SE13      30.25F WCI  11
PELLA *        CLOUDY    24  19  82 E8        30.27F WCI  15
PERRY *        CLOUDY    24  22  93 E12       30.20F WCI  13
$$

IAZ004>006-015-016-023>025-035-036-102300-
   NORTH CENTRAL IOWA

CITY           SKY/WX    TMP DP  RH WIND       PRES   REMARKS
ALGONA *       CLOUDY    19  18  93 SE13      30.21F WCI   7
CLARION *      CLOUDY    21  19  93 SE13      30.23F WCI   9
ESTHERVILLE    LGT SNOW  14  12  92 E13       30.18F FOG     WCI   0
FORT DODGE *   CLOUDY    21  16  79 E13       30.21F WCI   9
MASON CITY     LGT SNOW  16  13  88 E10       30.27F FOG     WCI   4
FOREST CITY *  LGT SNOW  18  14  86 E8        30.24F WCI   7
WEBSTER CITY *   N/A     21  21 100 E14       30.20F WCI   8
IOWA FALLS *   FLURRIES  22  19  88 E12       30.25F WCI  11
$$

IAZ007>011-017>019-026>030-037>042-050>054-066-102300-
   NORTHEAST IOWA

CITY           SKY/WX    TMP DP  RH WIND       PRES   REMARKS
CEDAR RAPIDS   LGT SNOW  21  21 100 SE7       30.31F FOG     WCI  12
CHARLES CITY * LGT SNOW  18  16  93 E9        30.29F WCI   6
CLINTON *      LGT SNOW  22  20  92 S6        30.38S FOG     WCI  14
DECORAH *      LGT SNOW  14  12  92 E6        30.31F WCI   5
DUBUQUE        LGT SNOW  20  17  88 SE6       30.34F VSB 3/4 WCI  12
MONTICELLO *   LGT SNOW  21  19  93 SE6       30.35S VSB 1   WCI  14
OELWEIN *      LGT SNOW  19  18  93 SE8       30.31F WCI   9
WATERLOO       LGT SNOW  21  17  84 SE10      30.30F VSB 3/4 WCI  10
$$

IAZ064-065-067-068-078-102300-
   EAST CENTRAL IOWA

CITY           SKY/WX    TMP DP  RH WIND       PRES   REMARKS
DAVENPORT      LGT SNOW  22  20  92 SE6       30.37S VSB 3/4 WCI  14
IOWA CITY      LGT SNOW  24  20  84 SE10      30.35F FOG     WCI  14
MUSCATINE *    LGT SNOW  25  21  86 SE8       30.37S WCI  16
QUAD CITIES    LGT SNOW  23  19  85 SE7       30.38R VSB 3/4 WCI  15
$$

IAZ062-063-075>077-085>089-095>099-102300-
   SOUTHEAST IOWA

CITY           SKY/WX    TMP DP  RH WIND       PRES   REMARKS
BURLINGTON     CLOUDY    25  19  78 SE12      30.33F WCI  14
FAIRFIELD *    CLOUDY    25  18  74 E13       30.30S WCI  13
FORT MADISON * CLOUDY    27  14  59 SE9G16    30.32F WCI  17
KEOKUK *       CLOUDY    28  14  54 SE13      30.30F WCI  18
OSKALOOSA *    CLOUDY    24  19  83 E13       30.28F WCI  12
CENTERVILLE *  CLOUDY    28  16  59 E6        30.25S WCI  22
OTTUMWA        CLOUDY    25  18  74 E13       30.26F WCI  14
WASHINGTON *   CLOUDY    23  21  93 SE12      30.33F WCI  12
$$

ABBREVIATIONS USED IN REMARKS
   TC - TEMPERATURES IN CELSIUS
  WCI - WIND CHILL INDEX
   HX - HEAT INDEX
  VSB - VISIBILITY
$$




USA.gov is the U.S. government's official web portal to all federal, state and local government web resources and services.